星链-4522 (STARLINK-4522 )

导读 | 豆包AI

STARLINK-4522是美国SpaceX公司星链星座的成员卫星,于2022年8月10日发射升空,目前处于在轨运行状态。它运行在近地轨道,轨道周期约95分钟,轨道倾角53.2度,近地点约539公里、远地点约541公里。作为星链全球卫星互联网项目的组成部分,它承担着为全球提供高速低延迟宽带通信服务的任务,助力填补偏远地区网络覆盖空白。

基本信息
目录编号:
53388
目录名称:
STARLINK-4522
国际标识:
2022-097A
轨道中心:
EARTH
卫星名称:
星链-4522
卫星全名:
星链-4522 (STARLINK-4522 )
卫星状态:
在轨 (已飞行1313 天)
发射日期:
2022-08-10 UTC
国别 :
美国 (US)
星等 :
--
轨道信息
数据来源 国际轨道数据
星历时间: 2026-03-14T19:49:30+0800
20小时前
查看轨道信息
半长轴: 6917.885km
偏心率: 0.0001485
轨道倾角: 53.216°
近地点辐角 86.837°
升交点赤经 102.561°
平近点角 273.279°
近地点: 538.72km
远地点: 540.776km
周期: 95.438分钟
每日圈数: 15.088386
详细信息
固有亮度:
5
最大亮度:
2.5
卫星平台:
Starlink v1.5
覆盖范围:
全球
运营商:
太空探索技术公司
运营商所在国:
美国
制造商(研发单位):
太空探索技术公司
制造商所在国:
美国
使用方式:
暂无
卫星简介
星链(Starlink)计划是由太空探索技术公司(SpaceX)提出的一个巨型低轨卫星互联网星座项目,计划在2019年至2024年间在太空搭建由约1.2万颗卫星组成的“星链”网络,其中1584颗将部署在地球上空550千米处的近地轨道,并从2020年开始工作。该卫星仍在工作。
2D轨道图
3D轨道图
轨道高度分析图
轨道倾角分析图
轨道综合分析图
查看轨道综合分析图